Valparaiso, IN

7:44 PM CDT on June 24, 2018 (GMT -0500)
Porter County Municipal

Weather History for KVPZ - August, 2017

Change the Weather History Date:

Sunday, August 13, 2017

  Actual Average Record
Temperature  
Mean Temperature 68 °F 71 °F  
Max Temperature 81 °F 81 °F 90 °F (2010)
Min Temperature 54 °F 61 °F 52 °F (2004)
Degree Days  
Heating Degree Days 0 0  
Month to date heating degree days 0 0  
Since 1 June heating degree days 3 45  
Since 1 July heating degree days 0 4  
Cooling Degree Days 3 6  
Month to date cooling degree days 81 88  
Year to date cooling degree days 686 539  
Since 1 June cooling degree days 629 492  
Growing Degree Days 16 (Base 50)    
Moisture  
Dew Point 56 °F    
Average Humidity 80    
Maximum Humidity 97    
Minimum Humidity 48    
Precipitation  
Precipitation 0.00 in 0.13 in 1.28 in (2005)
Month to date precipitation 1.63 1.72  
Year to date precipitation 23.35 22.95  
Sea Level Pressure  
Sea Level Pressure 30.05 in    
Wind  
Wind Speed 2 mph (NE)    
Max Wind Speed 8 mph    
Max Gust Speed 11 mph    
Visibility 7 miles    
Events Fog    
T = Trace of Precipitation, MM = Missing Value Source: NWS Daily Summary

Daily Weather History Graph

Daily Weather History Graph

Search for Another Location

Airport or City:

Astronomy

Aug. 13, 2017 Rise Set
Actual Time 5:55 AM CDT 7:49 PM CDT
Civil Twilight 5:25 AM CDT 8:19 PM CDT
Nautical Twilight 4:48 AM CDT 8:55 PM CDT
Astronomical Twilight 4:09 AM CDT 9:35 PM CDT
Moon 11:19 PM CDT (8/13) 11:58 AM CDT (8/13)
Length of Visible Light 14h 54m
Length of Day
13h 54m
Waning Gibbous, 65% of the Moon is Illuminated
Aug 13
Waning Gibbous
Aug 14
Last Quarter
Aug 21
New
Aug 29
First Quarter
Sep 6
Full

Hourly Weather History & Observations

Time (CDT) Temp. Dew Point Humidity Pressure Visibility Wind Dir Wind Speed Gust Speed Precip Events Conditions
12:56 AM 60.1 °F 57.9 °F 93% 30.07 in 10.0 mi Calm Calm - N/A   Clear
1:56 AM 59.0 °F 55.9 °F 90% 30.07 in 10.0 mi Calm Calm - N/A   Clear
2:56 AM 57.0 °F 55.0 °F 93% 30.07 in 8.0 mi Calm Calm - N/A   Clear
3:56 AM 55.9 °F 55.0 °F 97% 30.07 in 8.0 mi Calm Calm - N/A   Clear
4:45 AM 55.9 °F 55.0 °F 97% 30.07 in 1.8 mi Calm Calm - N/A   Clear
4:56 AM 55.9 °F 55.0 °F 97% 30.06 in 1.2 mi Calm Calm - N/A   Clear
5:03 AM 55.0 °F 54.0 °F 96% 30.07 in 4.0 mi Calm Calm - N/A   Clear
5:06 AM 55.0 °F 54.0 °F 96% 30.07 in 1.2 mi Calm Calm - N/A   Clear
5:15 AM 55.9 °F 55.0 °F 97% 30.07 in 0.5 mi Calm Calm - N/A Fog Fog
5:26 AM 55.9 °F 55.0 °F 97% 30.07 in 2.0 mi Calm Calm - N/A   Clear
5:30 AM 55.0 °F 54.0 °F 96% 30.07 in 0.8 mi Calm Calm - N/A   Clear
5:42 AM 55.9 °F 55.0 °F 97% 30.08 in 2.5 mi Calm Calm - N/A   Clear
5:49 AM 55.0 °F 54.0 °F 96% 30.08 in 7.0 mi Calm Calm - N/A   Clear
5:56 AM 55.0 °F 54.0 °F 96% 30.08 in 7.0 mi West 3.5 mph - N/A   Clear
6:07 AM 54.0 °F 53.1 °F 97% 30.09 in 1.8 mi West 4.6 mph - N/A   Clear
6:14 AM 55.0 °F 54.0 °F 96% 30.09 in 3.0 mi WSW 3.5 mph - N/A   Clear
6:56 AM 59.0 °F 57.0 °F 93% 30.09 in 8.0 mi Calm Calm - N/A   Clear
7:56 AM 66.0 °F 54.0 °F 65% 30.09 in 10.0 mi Calm Calm - N/A   Clear
8:56 AM 69.1 °F 55.0 °F 61% 30.09 in 10.0 mi NNE 3.5 mph - N/A   Clear
9:56 AM 72.0 °F 57.9 °F 61% 30.09 in 10.0 mi ENE 3.5 mph - N/A   Clear
10:56 AM 73.0 °F 59.0 °F 61% 30.09 in 10.0 mi North 3.5 mph - N/A   Clear
11:56 AM 75.9 °F 57.9 °F 54% 30.08 in 10.0 mi NNE 3.5 mph - N/A   Clear
12:56 PM 75.9 °F 57.0 °F 52% 30.07 in 10.0 mi Calm Calm - N/A   Clear
1:56 PM 78.1 °F 59.0 °F 52% 30.06 in 10.0 mi ESE 4.6 mph - N/A   Clear
2:56 PM 78.1 °F 57.9 °F 50% 30.04 in 10.0 mi SE 5.8 mph - N/A   Clear
3:56 PM 78.1 °F 57.0 °F 48% 30.02 in 10.0 mi Calm Calm - N/A   Partly Cloudy
4:56 PM 78.1 °F 59.0 °F 52% 30.02 in 10.0 mi Calm Calm - N/A   Scattered Clouds
5:56 PM 73.0 °F 60.1 °F 64% 30.01 in 10.0 mi North 4.6 mph - N/A   Mostly Cloudy
6:56 PM 71.1 °F 60.1 °F 68% 30.00 in 10.0 mi Calm Calm - N/A   Partly Cloudy
7:56 PM 68.0 °F 60.1 °F 76% 29.99 in 10.0 mi Calm Calm - N/A   Clear
8:56 PM 64.0 °F 59.0 °F 84% 29.99 in 10.0 mi NE 3.5 mph - N/A   Clear
9:56 PM 62.1 °F 57.9 °F 86% 29.99 in 10.0 mi East 3.5 mph - N/A   Clear
10:56 PM 61.0 °F 57.0 °F 87% 29.99 in 10.0 mi NE 3.5 mph - N/A   Clear
11:56 PM 61.0 °F 57.0 °F 87% 29.98 in 10.0 mi ENE 3.5 mph - N/A   Clear